Date String (YYYY-MM-DD hh:mm:ss) UTC,Instrument flags,Ambient pressure (hPa),Sample flow (lpm),Bypass flow (lpm),Sample temperature (°C),Ambient temperature (°C),ASC tube jacket temperature (°C),LED temperature (°C),Box temperature (°C),Sample RH (%),Span deviation,Mass concentration (μg/m³),Mass concentration (μg/m³),Mass concentration (μg/m³)
DateTimeUTC,F1_M11,P_M11,Q1_M11,Q2_M11,T1_M11,T2_M11,T3_M11,T4_M11,T5_M11,U1_M11,ZSPAN_M11,X2_M11,X0_M11,X1_M11
2023-02-10 05:00:00,,0835.5,4.97,0.00,21.4,19.3,00.0,30.5,22.9,08.6,0000.0,0003.75,0011.69,0003.10
2023-02-10 05:01:00,,0835.6,5.03,0.00,21.4,19.9,00.0,30.4,23.0,08.6,0000.0,0003.84,0011.72,0003.19
2023-02-10 05:02:00,,0835.6,5.02,0.00,21.5,21.2,00.0,30.4,23.3,08.6,0000.0,0003.92,0012.50,0003.26
2023-02-10 05:03:00,,0835.5,5.00,0.00,21.7,22.2,00.0,30.4,23.6,08.6,0000.1,0003.94,0012.87,0003.32
2023-02-10 05:04:00,,0835.6,4.98,0.00,21.7,22.0,00.0,30.5,23.7,08.5,0002.4,0004.06,0012.96,0003.43
2023-02-10 05:05:00,,0835.6,5.02,0.00,21.8,21.4,00.0,30.5,23.6,08.5,0003.1,0004.28,0012.46,0003.59
2023-02-10 05:06:00,,0835.6,4.97,0.00,21.7,20.9,00.0,30.5,23.4,08.5,0003.2,0004.53,0012.52,0003.82
2023-02-10 05:07:00,,0835.6,5.02,0.00,21.7,20.5,00.0,30.5,23.3,08.5,0003.1,0004.63,0011.95,0003.92
2023-02-10 05:08:00,,0835.6,4.99,0.00,21.7,20.2,00.0,30.5,23.2,08.5,0003.1,0004.62,0011.77,0003.96
2023-02-10 05:09:00,,0835.5,5.05,0.00,21.6,19.9,00.0,30.5,23.2,08.5,0003.2,0004.60,0011.14,0003.98
2023-02-10 05:10:00,,0835.6,4.97,0.00,21.6,19.7,00.0,30.5,23.1,08.5,0003.1,0004.58,0011.04,0003.97
2023-02-10 05:11:00,,0835.6,4.94,0.00,21.5,19.5,00.0,30.5,23.0,08.5,0003.1,0004.58,0011.09,0003.95
2023-02-10 05:12:00,,0835.6,5.01,0.00,21.5,19.4,00.0,30.5,22.9,08.5,0003.5,0004.51,0010.97,0003.89
2023-02-10 05:13:00,,0835.6,4.97,0.00,21.4,19.6,00.0,30.4,23.0,08.5,0003.5,0004.49,0010.11,0003.85
2023-02-10 05:14:00,,0835.6,4.98,0.00,21.5,21.0,00.0,30.4,23.3,08.5,0003.3,0004.47,0010.43,0003.81
2023-02-10 05:15:00,,0835.6,5.01,0.00,21.7,22.1,00.0,30.4,23.6,08.4,0003.1,0004.40,0010.86,0003.71
2023-02-10 05:16:00,,0835.6,4.97,0.00,21.7,22.1,00.0,30.5,23.7,08.4,0001.8,0004.24,0010.82,0003.56
2023-02-10 05:17:00,,0835.6,5.00,0.00,21.7,21.4,00.0,30.5,23.5,08.3,0000.0,0004.06,0010.32,0003.36
2023-02-10 05:18:00,,0835.6,5.04,0.00,21.7,20.8,00.0,30.5,23.3,08.3,0000.0,0004.01,0010.37,0003.29
2023-02-10 05:19:00,,0835.6,5.03,0.00,21.6,20.3,00.0,30.5,23.2,08.3,0000.0,0004.04,0010.47,0003.27
2023-02-10 05:20:00,,0835.5,4.97,0.00,21.6,19.9,00.0,30.5,23.1,08.3,0000.0,0004.07,0010.20,0003.27
2023-02-10 05:21:00,,0835.6,5.00,0.00,21.5,19.5,00.0,30.5,23.0,08.4,0000.0,0004.09,0009.76,0003.27
2023-02-10 05:22:00,,0835.6,4.96,0.00,21.5,19.3,00.0,30.5,22.8,08.4,0000.0,0004.10,0009.85,0003.27
2023-02-10 05:23:00,,0835.6,5.00,0.00,21.4,19.0,00.0,30.5,22.7,08.4,0000.0,0004.13,0010.34,0003.26
2023-02-10 05:24:00,,0835.6,5.06,0.00,21.3,19.1,00.0,30.4,22.7,08.4,0000.0,0004.08,0010.23,0003.25
2023-02-10 05:25:00,,0835.6,5.04,0.00,21.4,20.4,00.0,30.4,23.0,08.4,0000.0,0004.06,0009.40,0003.26
2023-02-10 05:26:00,,0835.7,4.99,0.00,21.5,21.6,00.0,30.3,23.3,08.3,0000.0,0004.01,0009.52,0003.25
2023-02-10 05:27:00,,0835.6,4.98,0.00,21.6,22.1,00.0,30.4,23.5,08.3,0000.0,0003.98,0009.34,0003.25
2023-02-10 05:28:00,,0835.6,4.99,0.00,21.6,21.4,00.0,30.4,23.4,08.3,0000.0,0003.93,0009.23,0003.23
2023-02-10 05:29:00,,0835.6,5.03,0.00,21.6,20.8,00.0,30.4,23.2,08.3,0000.0,0003.88,0009.08,0003.23
2023-02-10 05:30:00,,0835.6,5.02,0.00,21.6,20.2,00.0,30.4,23.1,08.3,0000.0,0003.82,0009.00,0003.22
2023-02-10 05:31:00,,0835.6,4.99,0.00,21.5,19.8,00.0,30.4,23.0,08.3,0000.0,0003.77,0009.15,0003.21
2023-02-10 05:32:00,,0835.6,5.04,0.00,21.4,19.4,00.0,30.4,22.8,08.4,0000.0,0003.75,0009.40,0003.21
2023-02-10 05:33:00,,0835.6,4.99,0.00,21.4,19.2,00.0,30.4,22.8,08.4,0000.0,0003.72,0009.21,0003.19
2023-02-10 05:34:00,,0835.5,4.99,0.00,21.3,19.1,00.0,30.4,22.7,08.4,0000.0,0003.66,0008.65,0003.19
2023-02-10 05:35:00,,0835.6,5.03,0.00,21.3,20.3,00.0,30.3,23.0,08.4,0000.0,0003.64,0008.63,0003.19
2023-02-10 05:36:00,,0835.6,4.99,0.00,21.5,21.7,00.0,30.3,23.3,08.3,0000.0,0003.62,0008.52,0003.17
2023-02-10 05:37:00,,0835.6,4.98,0.00,21.6,22.3,00.0,30.3,23.5,08.3,0000.0,0003.59,0008.02,0003.16
2023-02-10 05:38:00,,0835.6,4.98,0.00,21.6,21.8,00.0,30.4,23.5,08.2,0000.0,0003.58,0008.16,0003.14
2023-02-10 05:39:00,,0835.5,5.01,0.00,21.6,21.2,00.0,30.4,23.4,08.2,0000.0,0003.58,0008.24,0003.13
2023-02-10 05:40:00,,0835.5,4.97,0.00,21.6,20.7,00.0,30.4,23.2,08.2,0000.0,0003.56,0008.19,0003.11
2023-02-10 05:41:00,,0835.5,5.02,0.00,21.6,20.2,00.0,30.4,23.1,08.2,0000.0,0003.54,0008.05,0003.09
2023-02-10 05:42:00,,0835.5,4.98,0.00,21.5,19.9,00.0,30.4,23.0,08.3,0000.0,0003.52,0007.86,0003.08
2023-02-10 05:43:00,,0835.5,5.02,0.00,21.5,19.6,00.0,30.4,22.9,08.3,0000.0,0003.49,0007.35,0003.03
2023-02-10 05:44:00,,0835.5,4.99,0.00,21.4,19.3,00.0,30.4,22.7,08.3,0000.0,0003.48,0007.32,0003.00
2023-02-10 05:45:00,,0835.5,5.01,0.00,21.3,19.5,00.0,30.4,22.8,08.2,0000.0,0003.45,0007.09,0002.95
2023-02-10 05:46:00,,0835.5,5.00,0.00,21.4,20.8,00.0,30.3,23.1,08.2,0000.0,0003.44,0006.92,0002.90
2023-02-10 05:47:00,,0835.5,5.00,0.00,21.6,22.0,00.0,30.3,23.4,08.2,0000.0,0003.45,0007.01,0002.88
2023-02-10 05:48:00,,0835.6,4.97,0.00,21.7,22.2,00.0,30.4,23.6,08.1,0000.0,0003.43,0006.88,0002.85
2023-02-10 05:49:00,,0835.6,5.02,0.00,21.7,21.6,00.0,30.4,23.5,08.1,0000.0,0003.42,0005.96,0002.85
2023-02-10 05:50:00,,0835.6,5.01,0.00,21.7,21.0,00.0,30.4,23.3,08.2,0000.0,0003.39,0006.17,0002.84
2023-02-10 05:51:00,,0835.6,4.99,0.00,21.6,20.6,00.0,30.4,23.2,08.2,0000.0,0003.42,0006.29,0002.84
2023-02-10 05:52:00,,0835.6,4.99,0.00,21.6,20.2,00.0,30.5,23.1,08.2,0000.0,0003.46,0007.35,0002.85
2023-02-10 05:53:00,,0835.6,5.02,0.00,21.5,19.9,00.0,30.4,23.1,08.3,0000.0,0003.47,0007.61,0002.84
2023-02-10 05:54:00,,0835.6,5.01,0.00,21.5,19.7,00.0,30.4,23.0,08.3,0000.0,0003.50,0007.66,0002.86
2023-02-10 05:55:00,,0835.6,4.97,0.00,21.5,19.7,00.0,30.4,23.0,08.3,0000.0,0003.47,0007.59,0002.86
2023-02-10 05:56:00,,0835.6,5.03,0.00,21.4,19.6,00.0,30.4,23.0,08.3,0000.0,0003.49,0007.68,0002.87
2023-02-10 05:57:00,,0835.6,4.97,0.00,21.4,19.6,00.0,30.4,23.0,08.3,0000.0,0003.53,0007.92,0002.89
2023-02-10 05:58:00,,0835.7,5.02,0.00,21.4,20.1,00.0,30.4,23.1,08.3,0000.0,0003.53,0008.20,0002.91
2023-02-10 05:59:00,,0835.7,5.00,0.00,21.5,21.5,00.0,30.3,23.4,08.3,0000.0,0003.55,0008.26,0002.95
